Location: Unspecified
(51.0950°N, 12.9690°E)
Time: 19:28:35
(UTC+00:00)

BUGSAT 1 - Pass Details

Date: 17 May 2025
Orbit: 512 x 554 km, 98.1° (Epoch: 16 June)

Event Time Altitude Azimuth Distance (km) Brightness Sun altitude
Exits shadow 21:35:45 - 227° (SW) 2,047 ? -16.7°
Reaches altitude 10° 21:36:58 10° 241° (WSW) 1,753 ? -16.8°
Maximum altitude 21:38:49 13° 270° (W) 1,560 ? -16.9°
Drops below altitude 10° 21:40:40 10° 300° (WNW) 1,753 ? -17.0°
Sets 21:43:46 0° 329° (NNW) 2,643 ? -17.2°
